Regional Weather Roundup
Issued by NWS

Home | Current Version | Previous Version | Graphics & Text | Print | Product List | Glossary On
Versions: 1 2 3 4 5 6 7 8 9 10 11 12 13 14 15 16 17 18 19 20 21 22 23 24 25 26 27 28 29 30 31 32 33 34 35 36 37 38 39 40 41 42 43 44 45 46 47 48 49 50
000
ASUS43 KLOT 261209
RWRIL

ILLINOIS REGIONAL WEATHER ROUNDUP
NATIONAL WEATHER SERVICE CHICAGO/ROMEOVILLE IL
700 AM CDT TUE SEP 26 2017

NOTE: "FAIR" INDICATES FEW OR NO CLOUDS BELOW 12,000 FEET WITH NO
SIGNIFICANT WEATHER AND/OR OBSTRUCTIONS TO VISIBILITY.

* THESE STATIONS ARE NOT UNDER NWS QUALITY CONTROL. THEY ALSO MAY NOT
  REPORT WEATHER SUCH AS PRECIPITATION OR FOG.

ILZ001-002-007-009-015-016-024-261300-
NORTHWEST ILLINOIS

CITY           SKY/WX    TMP DP  RH WIND       PRES   REMARKS
MOLINE         MOCLDY    68  65  90 E3        29.92R
6HR MIN TEMP:  68; 6HR MAX TEMP:  73; 6HR PCP:  0.09;

STERLING*      CLOUDY    65  62  90 E5        29.94R
SAVANNA*       CLOUDY    68  64  84 CALM      29.92S
$$

ILZ003-004-008-010-011-017-018-261300-
NORTH CENTRAL ILLINOIS

CITY           SKY/WX    TMP DP  RH WIND       PRES   REMARKS
ROCKFORD       CLOUDY    65  61  87 CALM      29.94S
6HR MIN TEMP:  63; 6HR MAX TEMP:  70;

FREEPORT*      CLOUDY    65  63  93 CALM      29.95R
ROCHELLE*      MOCLDY    63  59  89 CALM      29.94S
DE KALB*       MOCLDY    63  59  87 SE5       29.96R
PERU*          CLOUDY    66  61  84 SE6       29.96R
$$

ILZ005-006-012>014-019>023-261300-
NORTHEAST ILLINOIS

CITY           SKY/WX    TMP DP  RH WIND       PRES   REMARKS
CHICAGO-OHARE  MOCLDY    73  60  63 SW5       29.95R
6HR MIN TEMP:  70; 6HR MAX TEMP:  74;

CHICAGO-MIDWAY CLOUDY    73  60  63 S6        29.95R
6HR MIN TEMP:  72; 6HR MAX TEMP:  78;

AURORA         CLOUDY    64  61  90 CALM      29.96R
6HR MIN TEMP:  63; 6HR MAX TEMP:  68;

LANSING*       MOCLDY    65  62  89 S3        29.97R
JOLIET*        CLOUDY    67  64  89 CALM      29.96R
WAUKEGAN       PTCLDY    63  61  93 CALM      29.94R
6HR MIN TEMP:  63; 6HR MAX TEMP:  70;

DUPAGE AIRPORT CLOUDY    66  62  87 SE3       29.95R
6HR MIN TEMP:  64; 6HR MAX TEMP:  72;

KANKAKEE*      CLOUDY    64  62  93 SE5       29.97S
WHEELING       PTCLDY    68  62  81 CALM      29.96R
6HR MIN TEMP:  67; 6HR MAX TEMP:  71;

MORRIS*        CLOUDY    65  61  88 SE3       29.95R FOG
ROMEOVILLE*    CLOUDY    66  61  82 S5        29.96R
NORTHERLY ISL    N/A     74  59  59 SW5         N/A
$$

LMZ740>746-261300-
SOUTHERN LAKE MICHIGAN

STATION/POSITION SKY/WX   TEMP    WIND        PRES    VSBY  WAVE
                          AIR SEA DIR/SP/G                  HT/PER
                          (F)     (DEG/KT/KT) (MB)    (MI)  (FT/S)
SOUTHERN BUOY              72 71  160/  8/ 10 1013.3          0
WILMETTE HARBOR            72 71  260/  4/  6   N/A           1
HARRISON CRIB              76     200/ 15/ 15   N/A
BURNHAM HARBOR             74                   N/A
CALUMET HARBOR             72     190/  5/  7 1013.7R
BURNS HARBOR               71     180/  7/ 10 1015.2R
MICHIGAN CITY              73     180/ 10/ 12   N/A
MICHIGAN CITY 6N           72 71  210/  6/  8   N/A           1/ 2
ST. JOSEPH                 71 71  190/  6/  8 1014.5          1
$$

ILZ025>027-034>036-040-047-049-050-058-095>099-261300-
WEST-CENTRAL ILLINOIS

CITY           SKY/WX    TMP DP  RH WIND       PRES   REMARKS
QUINCY         CLOUDY    70  63  78 S7        29.95R
GALESBURG*     CLOUDY    67  63  86 S5        29.95S
MACOMB*        CLOUDY    66  64  91 CALM      29.97R
JACKSONVILLE*  MOCLDY    70  61  73 S5        29.96R
PITTSFIELD*    CLEAR     69  64  81 S3        29.97R
$$

ILZ028>032-037-038-041>044-048-051>054-059>061-261300-
CENTRAL ILLINOIS

CITY           SKY/WX    TMP DP  RH WIND       PRES   REMARKS
PONTIAC        CLOUDY    68  65  93 S3        29.97R
BLOOMINGTON    PTCLDY    67  62  84 S6        29.99R
DECATUR        PTCLDY    67  61  81 S3        29.99R
PEORIA         PTCLDY    70  64  81 S3        29.96R
6HR MIN TEMP:  69; 6HR MAX TEMP:  73;

LACON*         CLOUDY    68  64  85 SE3       29.94S
LINCOLN*       MOCLDY    66  64  91 S3        29.97R
SPRINGFIELD    CLEAR     70  63  78 S5        29.97R
6HR MIN TEMP:  70; 6HR MAX TEMP:  77;

TAYLORVILLE    PTCLDY    65  62  90 S5        29.98S
6HR MIN TEMP:  64; 6HR MAX TEMP:  68;

$$

ILZ033-039-045-046-055>057-062-063-261300-
EAST-CENTRAL ILLINOIS

CITY           SKY/WX    TMP DP  RH WIND       PRES   REMARKS
CHAMPAIGN      CLOUDY    67  61  81 S5        29.99R
RANTOUL*       MOCLDY    67  64  87 SE3       29.99R
MATTOON        PTCLDY    69  65  86 SW5       29.99R
PARIS*         CLEAR     64  63  96 CALM      30.01R
$$

ILZ079-100>102-261300-
SOUTHWEST ILLINOIS

CITY           SKY/WX    TMP DP  RH WIND       PRES   REMARKS
ALTON          CLEAR     63  63 100 CALM      29.98R
BELLEVILLE     CLEAR     64  62  93 CALM      29.98R
CAHOKIA*       CLEAR     64  61  90 CALM      29.98R
SPARTA*        PTCLDY    64  62  91 CALM      30.00R
$$

ILZ064>066-069>071-074>076-080>082-084>086-088>090-092>094-261300-
SOUTH-CENTRAL ILLINOIS

CITY           SKY/WX    TMP DP  RH WIND       PRES   REMARKS
CARBONDALE     FOG       62  62 100 CALM      29.99R VSB 1/4
6HR MIN TEMP:  61; 6HR MAX TEMP:  66;

CAIRO*         CLEAR     62  62 100 CALM      30.00R FOG
EFFINGHAM*     PTCLDY    64  63  97 CALM      30.01R
MARION         CLEAR     64  64 100 MISG      30.00R FOG
MT. VERNON       N/A     60  60 100 CALM      30.00R
CENTRALIA*     CLEAR     63  61  95 CALM      29.99R
SALEM*         CLEAR     63  60  91 CALM      29.99R
METROPOLIS*    CLEAR     63  62  98 CALM      30.01R FOG
$$

ILZ067-068-072-073-078-083-087-091-261300-
SOUTHEAST ILLINOIS

CITY           SKY/WX    TMP DP  RH WIND       PRES   REMARKS
LAWRENCEVILLE  CLEAR     67  66  97 CALM      30.01R FOG
FLORA*         CLEAR     65  63  94 CALM      30.00R FOG
FAIRFIELD*     PTCLDY    63  62  96 CALM      30.00R
HARRISBURG*      N/A     62  61  99 CALM      30.00R FOG
ROBINSON*      PTCLDY    61  61 100 CALM      30.01R FOG
CARMI*         FOG       62  62 100 CALM      30.00R VSB 1/4
$$

ABBREVIATIONS USED IN REMARKS
   TC - TEMPERATURE IN CELSIUS
  WCI - WIND CHILL INDEX
   HX - HEAT INDEX
  VSB - VISIBILITY
$$





USA.gov is the U.S. government's official web portal to all federal, state and local government web resources and services.